KB1JDX Weather Reports


time (UTC)temp
F
wind
direction
speed
knots
gust
knots
rain 1hr
in
rain 24hr
in
rain mn
in
humidity
%
barometer
mb
20260508224036 57 284 0.0 7.8 0.00 0.00 0.00 47 1010.4
20260508222036 57 290 0.0 7.8 0.00 0.00 0.00 48 1010.1
20260508221928 57 290 0.0 7.8 0.00 0.00 0.00 47 1010.2
20260508220038 57 307 0.0 7.0 0.00 0.00 0.00 49 1009.9
20260508214036 58 319 0.0 7.0 0.00 0.00 0.00 48 1009.9
20260508212037 58 338 0.0 7.0 0.00 0.00 0.00 50 1010.0
20260508211929 58 339 0.0 7.0 0.00 0.00 0.00 50 1009.9
20260508210037 59 311 4.3 13.0 0.00 0.00 0.00 47 1009.8
20260508204038 59 296 0.0 13.0 0.00 0.00 0.00 48 1009.8
20260508202036 59 278 5.2 13.0 0.00 0.00 0.00 48 1009.6
20260508201928 59 17 0.0 13.0 0.00 0.00 0.00 48 1009.7
20260508200037 59 313 0.0 7.8 0.00 0.00 0.00 48 1009.8
20260508192036 57 267 0.0 7.8 0.00 0.00 0.00 51 1009.6
20260508191928 57 267 0.0 7.8 0.00 0.00 0.00 52 1009.6
20260508190036 57 295 0.0 9.6 0.00 0.00 0.00 50 1009.7
20260508184036 57 285 4.3 9.6 0.00 0.00 0.00 50 1009.8
20260508182038 58 259 0.0 9.6 0.00 0.00 0.00 47 1009.4
20260508181928 58 279 0.0 9.6 0.00 0.00 0.00 44 1009.4
20260508180036 59 314 3.5 12.2 0.00 0.00 0.00 40 1008.8
20260508174036 61 298 0.0 12.2 0.00 0.00 0.00 39 1008.9
20260508172038 61 5 0.0 12.2 0.00 0.00 0.00 41 1009.0
20260508171928 61 5 0.0 12.2 0.00 0.00 0.00 40 1009.1
20260508164038 61 300 0.0 11.3 0.00 0.00 0.00 39 1009.4
20260508162038 61 254 0.0 11.3 0.00 0.00 0.00 42 1009.7
20260508161928 61 254 0.0 11.3 0.00 0.00 0.00 42 1009.7
20260508160038 61 238 0.0 10.4 0.00 0.00 0.00 43 1009.8
20260508154038 61 229 0.0 10.4 0.00 0.00 0.00 42 1009.9
20260508152037 60 299 3.5 10.4 0.00 0.00 0.00 43 1010.0
20260508151928 60 213 0.0 10.4 0.00 0.00 0.00 42 1010.1
20260508150036 59 303 0.0 7.0 0.00 0.00 0.00 42 1010.1
20260508144036 59 197 0.9 7.0 0.00 0.00 0.00 42 1010.2
20260508142036 58 310 0.9 7.0 0.00 0.00 0.00 45 1010.2
20260508141928 58 309 4.3 7.0 0.00 0.00 0.00 46 1010.3
20260508140038 56 302 0.0 6.1 0.00 0.00 0.00 47 1010.5
20260508134038 56 289 0.0 6.1 0.00 0.00 0.00 48 1010.8
20260508132036 56 325 0.0 6.1 0.00 0.00 0.00 47 1010.7
20260508131928 55 326 0.0 6.1 0.00 0.00 0.00 48 1010.8
20260508130036 54 25 0.0 0.0 0.00 0.00 0.00 51 1010.8
20260508124036 52 304 0.0 0.0 0.00 0.00 0.00 54 1010.8
20260508122038 49 323 0.0 0.0 0.00 0.00 0.00 58 1010.8
20260508121928 49 323 0.0 0.0 0.00 0.00 0.00 58 1010.8
20260508120036 45 311 0.0 0.0 0.00 0.00 0.00 67 1010.8
20260508114036 44 311 0.0 0.0 0.00 0.00 0.00 56 1010.9
20260508112036 42 311 0.0 0.0 0.00 0.00 0.00 43 1010.8
20260508111928 42 311 0.0 0.0 0.00 0.00 0.00 43 1010.8
20260508110038 40 311 0.0 0.0 0.00 0.00 0.00 37 1010.6
20260508104036 39 311 0.0 0.0 0.00 0.00 0.00 36 1010.5
20260508102036 38 311 0.0 0.0 0.00 0.02 0.00 32 1010.4
20260508101928 38 311 0.0 0.0 0.00 0.02 0.00 32 1010.4
20260508100036 38 311 0.0 0.0 0.00 0.06 0.00 33 1010.0
20260508094036 38 311 0.0 0.0 0.00 0.06 0.00 35 1009.9
20260508092036 38 311 0.0 0.0 0.00 0.07 0.00 36 1009.9
20260508091928 38 311 0.0 0.0 0.00 0.07 0.00 36 1009.9
20260508090036 39 311 0.0 0.0 0.00 0.08 0.00 32 1009.9
20260508084036 38 311 0.0 0.0 0.00 0.08 0.00 33 1009.6
20260508082037 37 311 0.0 0.0 0.00 0.10 0.00 36 1009.6
20260508081928 37 311 0.0 0.0 0.00 0.10 0.00 36 1009.6
20260508080036 37 311 0.0 0.0 0.00 0.13 0.00 38 1009.6
20260508074036 37 311 0.0 0.0 0.00 0.13 0.00 41 1009.2
20260508072036 38 311 0.0 0.0 0.00 0.19 0.00 42 1008.8
20260508071928 38 311 0.0 0.0 0.00 0.19 0.00 43 1008.7
20260508064036 38 311 0.0 0.0 0.00 0.19 0.00 49 1008.3
20260508062036 38 311 0.0 0.0 0.00 0.19 0.00 55 1008.2
20260508061928 38 311 0.0 0.0 0.00 0.19 0.00 55 1008.2
20260508060036 39 311 0.0 0.0 0.00 0.19 0.00 59 1008.2
20260508054036 40 311 0.0 0.0 0.00 0.19 0.00 62 1008.2
20260508052036 40 311 0.0 0.0 0.00 0.19 0.00 61 1008.4
20260508051928 40 311 0.0 0.0 0.00 0.19 0.00 60 1008.4
20260508050036 41 311 0.0 0.0 0.00 0.19 0.00 62 1008.4
20260508044036 42 311 0.0 0.0 0.00 0.19 0.00 65 1008.8
20260508042037 42 311 0.0 0.0 0.00 0.19 0.00 68 1009.0
20260508041928 42 311 0.0 0.0 0.00 0.19 0.00 68 1009.0
20260508040037 43 311 0.0 0.0 0.00 0.19 0.19 68 1008.9
20260508034036 44 311 0.0 0.0 0.00 0.19 0.19 67 1008.9
20260508032036 46 311 0.0 0.0 0.00 0.19 0.19 65 1008.8
20260508031928 46 311 0.0 0.0 0.00 0.19 0.19 65 1008.8
20260508030036 46 311 0.0 0.0 0.00 0.19 0.19 62 1008.8
20260508024036 47 311 0.0 0.0 0.00 0.19 0.19 59 1008.8
20260508022036 48 311 0.0 0.0 0.00 0.19 0.19 56 1008.8
20260508021928 49 311 0.0 0.0 0.00 0.19 0.19 56 1008.7
20260508020036 49 311 0.0 0.0 0.00 0.19 0.19 56 1008.8
20260508014036 51 311 0.0 0.0 0.00 0.19 0.19 52 1009.0
20260508012036 52 311 0.0 0.0 0.00 0.19 0.19 52 1008.9
20260508011928 52 311 0.0 0.0 0.00 0.19 0.19 51 1008.8
20260508010036 53 311 0.0 5.2 0.00 0.19 0.19 49 1008.2
20260508004036 54 311 0.0 5.2 0.00 0.19 0.19 49 1008.0
20260508002036 55 311 0.0 5.2 0.00 0.19 0.19 47 1007.7
20260508001928 55 311 0.0 5.2 0.00 0.19 0.19 46 1007.7
20260508000038 56 311 0.0 8.7 0.00 0.19 0.19 44 1007.4
20260507234036 57 311 0.0 8.7 0.00 0.19 0.19 41 1007.2
20260507232036 58 293 0.0 8.7 0.00 0.19 0.19 42 1007.0
20260507231928 58 292 0.0 8.7 0.00 0.19 0.19 41 1006.9
20260507230036 58 18 0.0 9.6 0.00 0.19 0.19 39 1007.0